Simultaneous Nadir Overpasses (SNOs) Predictions

Prediction of SNOs between METOP-B and NOAA-19 Satellite Orbit:

Table of predicted SNOs for the next 14.0 days since TLE Epoch: 5/25/2018
Index Date (METOP-B) Time (METOP-B) Lat,Lon (METOP-B) SZA (METOP-B ) Date (NOAA-19) Time (NOAA-19) Lat,Lon (NOAA-19) SZA (NOAA-19 ) Distance(km) Time Diff (sec)
1 05/26/2018 19:07:48 -78.33, 82.60 122.75 05/26/2018 19:06:36 -78.33, 82.65 122.76 1.19 72
2 05/26/2018 19:58:28 78.32,-110.11 57.24 05/26/2018 19:57:33 78.34,-110.17 57.25 3.14 55
3 05/26/2018 20:49:10 -78.31, 57.16 122.78 05/26/2018 20:48:37 -78.32, 57.19 122.77 1.76 33
4 05/26/2018 21:39:50 78.30,-135.56 57.20 05/26/2018 21:39:33 78.30,-135.41 57.21 3.39 17
5 05/26/2018 22:30:32 -78.29, 31.72 122.82 05/26/2018 22:30:38 -78.32, 31.73 122.79 2.91 6
6 05/26/2018 23:21:12 78.28,-161.00 57.17 05/26/2018 23:21:34 78.29,-160.87 57.19 3.25 22
7 05/27/2018 00:11:54 -78.27, 6.28 122.85 05/27/2018 00:12:39 -78.31, 6.27 122.81 4.20 45
8 05/27/2018 01:02:33 78.30, 173.78 57.18 05/27/2018 01:03:35 78.29, 173.67 57.17 3.00 62
9 06/06/2018 16:07:38 78.35, -52.25 55.79 06/06/2018 16:06:27 78.36, -52.10 55.79 3.45 71
10 06/06/2018 16:58:20 -78.35, 115.04 124.22 06/06/2018 16:57:33 -78.37, 115.06 124.21 2.22 47
11 06/06/2018 17:48:59 78.37, -77.48 55.81 06/06/2018 17:48:28 78.35, -77.57 55.78 3.34 31
12 06/06/2018 18:39:42 -78.33, 89.59 124.25 06/06/2018 18:39:34 -78.36, 89.60 124.22 3.54 8
13 06/06/2018 19:30:21 78.35,-102.92 55.78 06/06/2018 19:30:29 78.34,-103.03 55.77 2.73 8
14 06/06/2018 20:21:03 -78.35, 64.37 124.23 06/06/2018 20:21:34 -78.32, 64.36 124.26 3.49 31
15 06/06/2018 21:11:43 78.34,-128.37 55.75 06/06/2018 21:12:30 78.34,-128.49 55.76 2.86 47
16 06/06/2018 22:02:25 -78.33, 38.92 124.26 06/06/2018 22:03:35 -78.31, 38.90 124.27 2.17 70




NCC Satellite Simultaneous Nadir Overpasses (SNOs) Prediction Service
